"Pseudo-MPEC" for 2023-137E = NORAD 57804 = H-2A F47 Stage 2 (SLIM booster)

Created 2023 Dec 10 15:38:36 UT using Find_Orb

Click here for an explanation of pseudo-MPECs

Click here for the original posting about this object on the NEOCP Junk list. You can click here for TLEs for this object (and for many other objects on these pages.)

The perigee for this object has dipped into the upper atmosphere, causing the apogee (and therefore orbital period) to drop. Click here for a graph of orbital period and perigee height for late 2023 to the end of 2024. Note that this should be taken with a large grain of salt. I have computed elements from the 2023 Dec 9 arc and found an area/mass ratio that results in a good fit to the November data. So it's a decent approximation to how much drag this object is encountering, but only approximate. It shows the object hitting the brakes a bit in late 2023 (which we've observed), then again in mid-2024, and finally re-entering in late 2025. Overall, the idea that it'll keep hitting the atmosphere and eventually re-enter is correct, but the specifics should not be believed.

Peter Birtwhistle has gotten a light-curve for this object. Looks to be a tumbler with a correspondingly weird light-curve. Peter has a gallery of light-curves, mostly of natural objects, but with several artsats at the bottom of the page.

 
 Astrometry: 
     C40WMQ1  C2023 11 07.39623 04 46 11.71 +26 37 06.9    ~B7FJx11.9 GV     703
     C40WMQ1  C2023 11 07.40153 04 46 34.97 +26 39 50.7    ~B7FJx      V     703
     C40WMQ1  C2023 11 07.40684 04 46 58.43 +26 42 27.7    ~B7FJx13.3 GV     703
     C40WMQ1  C2023 11 07.41216 04 47 22.18 +26 44 58.4    ~B7FJx12.5 GV     703
     A10Y8MO  C2023 11 13K)mAstrometry!Irredacted;pMtDk\u0MCUafX%\`6X^'i`M;C@T05
     A10Y8MO  C2023 11 13plvh=$baoy6YZhhGm]a)oclickd^`7S)1IPb7mfT.5-En3Y7!Y8HT05
     A10Y8MO  C2023 11 13pyQ?S;$m,WQ['hereZLtF([g')!`@VtX%D2Vd?LB3XydPZk0-?VgT05
     A10Y8MO  C2023 11 13!k/]u0wofq(Epn43(V`/d7D/!Q(forXr*#'ARkHexplanation2jT05
     A10YNZf* C2023 12 09*W`x3te;*f9*m]:nhv;Z*B!\h@^0BWJtED:`(Adc%X2GU8b5v_k3T05
     A10YNZf  C2023 12 09M1K'un8Eh]C(DKb:F'$%_6Mn(5^YNOlU:q\ieOh.2ej0j-K6h)MsT05
     A10YNZf  C2023 12 09Cv!24Za=WxS=(h%nSJYwW^3Eg)L`L;_6PS0pd.#d_,+T9U36fqJeT05
     A10YNZf  C2023 12 098-8RZnGs+wM^.CIpGgP,t6:3EMJ2xNwj5iBI^jBCAo')m*:L*F@;T05
     A10YNZf KC2023 12 09.58752406 02 45.59 +29 30 22.1    ~C9Hp 12.2 GVNEOCP900
     A10YNZf KC2023 12 09.58857806 02 51.09 +29 30 46.5    ~C9Hp 12.2 GVNEOCP900
     A10YNZf KC2023 12 09.58963106 02 56.56 +29 31 10.7    ~C9Hp 12.5 GVNEOCP900
     A10YNZf KC2023 12 09.59068406 03 02.05 +29 31 34.4    ~C9Hp 12.4 GVNEOCP900
     A10YNZf KC2023 12 09.59173706 03 07.50 +29 31 58.0    ~C9Hp 12.2 GVNEOCP900
     A10YNZf KB2023 12 09.71260 06 33 35.15 +29 32 27.4    ~C9Hp 12.0 GVNEOCPM44
     A10YNZf KB2023 12 09.71323 06 33 41.39 +29 32 50.4    ~C9Hp 12.0 GVNEOCPM44
     A10YNZf KB2023 12 09.71387 06 33 47.65 +29 33 13.6    ~C9Hp 11.6 GVNEOCPM44
     A10YNZf KC2023 12 09.72710306 15 10.46 +29 47 44.2    ~C9IL 12.2 GVNEOCP900
     A10YNZf KC2023 12 09.72815706 15 17.09 +29 47 33.3    ~C9IL 12.0 GVNEOCP900
     A10YNZf KC2023 12 09.72921106 15 23.72 +29 47 22.1    ~C9IL 11.9 GVNEOCP900
     A10YNZf KC2023 12 09.81169706 50 55.279+27 13 25.25   ~C9L3 13.2 GVNEOCPJ95
     A10YNZf KC2023 12 09.81523906 51 48.389+27 13 50.88   ~C9L3 12.6 GVNEOCPJ95
     A10YNZf KC2023 12 09.81660106 52 08.899+27 14 00.46   ~C9L3 12.1 GVNEOCPJ95
     A10YNZf KC2023 12 09.82242806 53 37.080+27 14 36.46   ~C9L3 11.9 GVNEOCPJ95
     A10YNZf KC2023 12 09.82271206 53 41.362+27 14 38.72   ~C9L3 12.0 GVNEOCPJ95

Station data:
(703) Catalina Sky Survey  (N32.417003 W110.732640)  US/Arizona.  Observer G.
   J. Leonard. Measurers E. C. Beshore, D. Fay, J. B. Fazekas, D. C. Fuls, A.
   R. Gibbs, A. D. Grauer, H. Gröller, J. K. Hogan, R. A. Kowalski, S. M.
   Larson, G. J. Leonard, D. Rankin, R. L. Seaman, F. C. Shelly, K. W.
   Wierzchoś. 0.68-m Schmidt + 10K CCD.
(900) Moriyama  (N35.049753 E135.989940)  Japan.  Observer Y. Ikari. 0.26-m
   f/7.0 reflector + CCD.
(J95) Great Shefford  (N51.474969 W1.447003)  UK/England.  Observer P.
   Birtwhistle. 0.41-m f/6.3 Schmidt-Cassegrain + CCD.
(M44) Al-Khatim Observatory, Abu Dhabi  (N24.219595 E54.920310)  United Arab
   Emirates.
(T05) ATLAS-HKO, Haleakala  (N20.707582 W156.257008)  US/Hawaii.  Observers
   L. Denneau, A. Heinze, H. Weiland, J. Tonry, H. Flewelling, A.
   Fitzsimmons, D. Young, B. Stalder. Measurers L. Denneau, A. Heinze, J.
   Tonry. 0.5-m f/2.0 Schmidt + CCD.

Orbital elements:  2023-137E = NORAD 57804 = H-2A F47 Stage 2
   Perigee 2023 Dec 10.1650312 +/- 2.87e-5 TT;  Constraint: A=.03447
Epoch 2023 Dec 10.0 TT; AMR 0.034116 +/- 9.6e-10 m2/kg          Find_Orb
M 320.3420687681 +/- 0.0042         (J2000 equator)
n 240.3056782303 +/- 0.0307         Peri.  256.4419642 +/- 0.0016
a 55304.544221 +/- 4.71             Node     8.3741627 +/- 0.0015
e   0.882293873 +/- 1.78e-5         Incl.   30.2971797 +/- 0.00012
P2157.212m/1.498d          H 27.68  G  0.15   U 10.4
q 6509.6836972 +/- 1.53    Q 104099.40474 +/- 7.93
20 of 28 observations 2023 Dec. 9 (10.3 hr); mean residual 0".503
Residuals in arcseconds: 
231107 703( 187+ 54.2+)   231209 T05 .084- .022-    231209 900 1.88- .063-
231107 703( 184+ 53.5+)   231209 T05 .134- .102-    231209 900 .328- .224-
231107 703( 184+ 53.0+)   231209 900 .110- .077-    231209 900 .887+ .382-
231107 703( 187+ 53.2+)   231209 900 878µ- 4.2m+    231209 J95 .244- .202+
231113 T05(.975+ 4.66+)   231209 900 .113- .124+    231209 J95 .155- .345+
231113 T05(.713+ 4.41+)   231209 900 .135+ .040-    231209 J95 .067+ .548+
231113 T05(1.00+ 4.64+)   231209 900 .043- .086-    231209 J95 .398+ .777-
231113 T05(2.12+ 4.99+)   231209 M44 1.31+ .265+    231209 J95 .069- .216-
231209 T05 .285+ .173+    231209 M44 1.35+ .302+
231209 T05 .048- 8.2m+    231209 M44 .412+ .201+

